Lapse_Rate
7.0 6.9 7.4 7.5 7.4 6.6 6.6 6.6 6.6 6.7 6.3 6.5 6.4 6.2 6.3 6.2 6.3 6.5 6.5 6.2 6.0 5.6 5.5 5.7 5.6 5.5 5.6 5.8 5.9 5.7 5.7 5.8 5.8 5.8 5.8 5.8 5.9 5.9 5.8 5.8 5.9 6.1 6.1 6.2 6.3 6.2 6.2 6.2 6.3
7.2 7.5 7.6 7.5 7.1 6.6 6.6 6.7 6.9 6.8 6.8 6.8 6.4 6.3 6.1 6.2 6.4 6.4 6.6 6.3 6.1 5.6 5.6 5.7 5.6 5.5 5.5 5.8 5.8 5.8 5.7 5.8 5.8 5.8 5.7 5.7 5.7 5.7 5.7 5.7 5.7 5.8 6.0 6.1 6.3 6.3 6.3 6.4 6.4
7.5 7.5 7.4 6.9 6.8 6.6 6.6 6.8 6.8 6.5 6.2 6.5 6.7 6.4 6.0 6.3 6.5 6.5 6.5 6.3 6.1 5.6 5.6 5.7 5.5 5.4 5.3 5.7 5.6 5.7 5.7 5.8 5.8 5.6 5.6 5.6 5.7 5.7 5.7 5.5 5.5 5.6 5.6 5.9 6.1 6.2 6.4 6.4 6.4
7.7 7.7 7.3 6.8 6.8 6.9 6.9 7.1 7.0 6.7 6.5 6.3 6.7 6.6 6.2 6.1 6.1 6.2 6.3 6.2 6.0 5.7 5.6 5.7 5.5 5.5 5.5 5.5 5.5 5.7 5.8 5.9 5.8 5.6 5.5 5.5 5.5 5.5 5.6 5.5 5.4 5.4 5.5 5.6 5.8 5.9 6.1 6.3 6.1
7.8 7.5 6.9 7.0 7.3 7.0 7.0 6.8 6.6 6.8 6.4 6.2 6.5 6.6 5.9 5.6 5.7 5.8 6.2 6.1 5.9 5.8 5.7 5.7 5.6 5.5 5.5 5.4 5.4 5.6 5.7 5.8 5.8 5.8 5.7 5.5 5.4 5.3 5.4 5.5 5.4 5.4 5.4 5.4 5.5 5.6 5.8 6.0 5.9
7.8 7.3 6.8 7.1 7.2 7.0 7.2 7.0 7.0 6.9 6.5 6.1 6.1 6.6 6.1 5.2 5.3 5.7 5.8 6.0 5.8 5.8 5.7 5.8 5.6 5.7 5.4 5.4 5.4 5.6 5.7 5.6 5.5 5.7 5.8 5.7 5.6 5.5 5.4 5.5 5.6 5.6 5.5 5.6 5.4 5.5 5.6 5.7 5.8
7.8 7.3 7.0 7.4 7.5 7.3 7.1 6.7 7.1 6.8 6.6 6.1 6.0 6.4 6.3 5.2 5.2 5.4 5.8 5.9 5.7 5.6 5.7 5.8 5.7 5.7 5.5 5.4 5.5 5.6 5.6 5.7 5.6 5.5 5.6 5.6 5.6 5.7 5.5 5.3 5.4 5.5 5.4 5.5 5.4 5.4 5.5 5.6 5.6
7.6 7.5 7.2 7.4 7.4 6.9 7.0 7.1 7.1 6.5 6.2 5.9 5.9 6.0 6.1 5.1 4.9 5.4 5.7 5.7 5.5 5.7 5.7 5.8 5.8 5.7 5.5 5.4 5.6 5.7 5.7 5.8 5.8 5.7 5.6 5.5 5.5 5.5 5.4 5.5 5.5 5.6 5.6 5.6 5.5 5.3 5.3 5.4 5.5
7.3 7.3 7.7 7.4 7.6 7.4 7.2 7.5 7.3 7.0 6.6 6.1 6.0 5.9 6.0 5.7 5.3 5.6 6.0 5.8 5.6 5.7 5.9 6.0 5.9 5.8 5.8 5.5 5.8 5.8 5.9 6.0 5.9 5.6 5.3 5.1 5.1 5.3 5.4 5.6 5.7 5.4 5.4 5.5 5.5 5.4 5.3 5.2 5.4
7.5 7.7 8.0 8.0 7.9 7.6 7.6 8.0 7.8 7.0 6.3 6.7 6.1 5.6 5.8 5.7 5.8 5.6 5.9 5.8 5.7 5.7 5.9 6.2 6.1 5.9 5.9 5.8 5.9 6.0 6.0 6.0 5.8 5.7 5.4 5.2 5.2 5.3 5.3 5.5 5.5 5.4 5.4 5.5 5.4 5.3 5.2 5.2 5.2
7.7 8.4 8.6 8.7 8.3 8.1 8.4 8.3 7.7 6.8 6.6 6.6 6.0 5.6 5.4 5.7 5.7 5.8 5.9 5.8 6.1 5.9 5.8 5.9 6.2 6.2 6.0 5.8 6.0 6.3 6.3 6.0 5.8 5.6 5.2 5.2 5.2 5.2 5.3 5.3 5.3 5.3 5.4 5.5 5.4 5.5 5.4 5.3 5.1
8.7 8.9 8.6 8.3 8.2 8.3 8.2 8.2 7.9 6.8 6.6 6.7 6.2 5.5 5.5 5.7 5.5 6.1 6.2 6.2 6.1 6.1 5.9 5.9 6.1 6.3 6.1 5.9 6.0 6.3 6.4 6.0 5.8 5.6 5.1 4.9 5.2 5.1 5.2 5.3 5.3 5.5 5.5 5.7 5.6 5.6 5.5 5.6 5.3
9.3 9.0 8.7 8.7 8.5 8.3 8.2 8.0 7.4 6.8 7.0 7.3 7.0 6.0 5.7 6.0 6.0 6.1 6.0 6.1 6.0 5.9 6.0 5.8 6.0 6.1 6.1 6.0 6.1 6.1 6.4 6.3 6.0 5.6 5.3 5.1 5.0 5.3 5.3 5.2 5.3 5.2 5.7 5.7 5.6 5.6 5.6 5.6 5.8
9.2 9.4 9.3 8.7 8.8 8.8 8.4 7.8 7.7 7.5 7.2 7.2 7.0 6.6 6.2 6.3 6.3 6.3 6.3 6.3 6.2 6.0 5.7 5.6 5.8 5.9 6.0 5.9 6.1 6.2 6.0 6.2 6.1 5.8 5.6 5.4 5.4 5.2 5.1 5.3 5.6 5.6 5.7 5.7 5.8 5.6 5.9 5.8 5.8
9.1 9.2 9.2 9.1 8.8 8.8 8.3 7.7 7.5 7.6 7.1 6.9 6.9 6.7 6.5 6.1 6.3 6.3 6.3 6.4 6.3 6.1 5.8 5.4 5.9 5.9 6.2 6.0 6.1 6.1 6.0 6.2 6.3 6.1 5.9 5.6 5.9 5.7 5.5 5.2 5.4 5.5 5.5 5.5 5.7 5.6 5.6 5.9 5.7
8.8 8.9 9.0 9.1 8.9 8.9 8.4 8.5 7.9 7.6 7.2 7.2 7.4 7.1 7.1 6.7 6.1 5.9 6.1 6.3 6.5 6.2 5.8 5.9 5.8 6.0 6.1 6.1 6.0 5.9 5.9 6.3 6.5 6.4 6.2 5.9 5.9 5.7 5.6 5.6 5.5 5.4 5.6 5.5 5.5 5.8 5.8 5.8 5.6
9.2 9.2 9.2 8.9 8.9 9.1 8.9 8.4 8.1 7.6 7.2 7.3 7.4 7.4 7.6 7.2 6.6 6.2 6.0 6.1 6.8 6.8 6.5 6.3 6.3 6.5 6.5 6.1 6.1 6.3 6.1 6.4 6.4 6.3 6.3 6.1 5.8 5.8 5.9 5.8 5.7 5.6 5.6 5.4 5.9 5.8 5.9 5.8 5.6
8.9 8.8 9.1 9.2 8.7 8.8 9.1 8.6 8.0 7.8 7.7 7.8 7.7 7.5 7.9 7.7 7.7 6.8 6.5 6.5 6.5 6.7 6.7 6.7 7.2 6.8 6.5 6.4 6.3 6.4 6.1 6.1 6.2 6.1 6.3 6.3 6.1 6.0 5.8 5.8 5.8 5.7 5.7 5.5 5.8 6.2 5.9 5.8 5.5
8.7 8.8 8.8 9.2 9.0 9.0 8.7 8.6 8.1 7.7 7.5 7.8 7.9 8.2 7.8 7.8 8.2 7.3 6.9 6.7 6.5 6.4 6.9 7.1 7.1 7.0 6.9 6.8 6.6 6.4 6.0 6.1 6.0 6.2 6.3 6.0 5.9 5.9 6.1 6.1 5.9 5.8 5.9 6.1 5.9 6.0 6.1 5.9 5.6
8.8 8.8 8.9 9.1 8.8 8.8 8.3 8.3 8.1 7.7 7.7 8.0 8.2 8.3 7.8 8.5 8.2 7.6 7.1 6.9 6.9 6.5 6.6 7.2 7.2 7.2 7.0 6.7 6.8 6.7 6.3 6.2 6.0 5.8 5.9 6.0 5.9 6.1 5.9 6.0 6.0 6.3 6.1 6.1 6.3 6.2 6.1 6.0 5.9
9.0 9.1 9.4 9.4 8.8 8.3 8.0 7.9 7.8 8.0 8.1 8.4 8.0 8.0 8.0 7.6 7.5 7.7 7.6 7.2 7.1 7.0 6.8 7.0 6.9 6.8 6.9 6.9 6.8 6.6 6.5 6.3 6.2 5.9 5.9 5.7 5.9 6.1 6.1 6.1 6.2 6.1 6.1 6.2 6.1 6.1 6.2 6.1 6.0
9.0 9.4 9.6 9.2 9.2 8.7 8.2 7.7 7.7 8.1 8.1 7.9 8.2 8.1 7.9 7.4 7.6 7.4 7.5 7.3 7.5 7.1 7.1 7.3 7.2 6.9 6.9 6.9 6.7 6.4 6.3 6.1 6.0 6.2 6.5 6.5 6.3 6.1 6.1 6.2 6.2 6.1 6.0 6.0 5.9 5.8 5.9 6.1 5.8
9.4 9.5 9.5 9.5 9.3 8.9 8.4 8.1 7.4 7.6 7.6 7.7 7.8 8.3 7.8 7.2 7.0 7.3 7.5 7.5 7.3 7.5 7.3 7.1 6.9 6.7 6.7 6.7 6.9 6.9 6.6 6.2 6.2 6.2 6.4 6.5 6.6 6.6 6.4 6.3 6.2 6.2 6.1 6.0 6.0 5.9 6.0 5.9 5.9
9.2 9.5 9.5 9.2 9.0 8.1 8.2 8.1 7.5 7.2 7.6 7.1 7.1 8.0 7.7 7.8 7.0 7.3 7.5 7.5 7.7 7.8 7.6 7.4 7.5 7.0 6.6 6.6 6.5 6.8 6.7 6.7 6.7 6.5 6.2 6.4 6.5 6.7 6.7 6.8 6.5 6.1 6.1 6.2 6.1 6.0 6.1 6.0 5.8
9.4 9.5 9.2 8.4 7.4 7.3 8.0 7.6 7.6 7.6 7.4 7.0 7.2 6.2 7.5 7.7 7.8 8.1 8.0 7.5 7.7 7.7 7.7 7.6 7.3 7.0 6.3 6.2 6.5 6.7 6.9 6.8 7.0 7.0 6.7 6.6 6.6 6.5 6.4 6.7 6.7 6.4 6.2 6.2 6.1 6.0 6.1 6.0 6.2
9.3 9.1 8.9 8.0 6.4 7.3 7.7 7.6 7.4 7.3 7.1 6.7 7.2 7.6 7.3 7.8 7.7 7.7 7.4 7.3 7.5 7.2 7.4 7.5 7.4 6.9 6.8 6.5 6.8 6.6 6.9 6.8 6.7 6.7 6.8 7.0 6.9 6.7 6.7 6.7 6.7 6.6 6.4 6.3 6.2 6.0 6.0 6.1 6.2
9.5 9.1 9.2 8.9 7.2 7.3 7.3 7.9 7.5 7.0 7.3 7.1 7.2 7.6 7.6 7.5 7.4 7.5 7.3 7.5 7.3 7.4 7.2 7.3 7.2 7.1 7.8 7.3 7.2 7.1 6.9 6.6 6.2 6.8 6.7 6.4 5.9 5.9 6.9 6.7 6.8 6.8 6.5 6.4 6.2 6.1 5.9 6.1 6.2
9.4 9.3 9.1 8.7 6.5 7.0 6.6 7.3 8.1 6.7 7.2 7.5 7.4 7.6 7.6 7.7 7.6 7.4 7.2 7.3 7.2 7.2 7.2 7.1 6.9 6.9 7.1 7.1 6.9 6.7 6.0 6.5 6.6 6.7 6.6 6.3 6.5 6.7 6.5 6.5 6.3 6.3 6.6 6.5 6.2 6.2 6.2 6.1 6.1
9.3 9.3 9.1 8.5 7.7 6.1 5.5 7.3 8.3 7.3 7.2 7.4 7.9 7.9 7.8 7.5 7.4 7.3 7.1 6.9 6.9 7.0 6.8 6.7 6.6 6.5 6.4 6.3 6.4 6.3 6.3 6.2 6.1 6.2 6.4 6.4 6.4 6.6 6.7 6.5 6.3 6.2 6.5 6.5 6.6 6.2 6.2 6.3 6.3
9.2 9.1 8.9 8.7 7.5 7.3 7.4 7.9 8.1 7.6 7.1 7.2 7.4 7.4 7.6 7.6 7.3 7.0 6.8 6.7 6.6 6.4 6.4 6.4 6.4 6.3 6.3 6.2 6.2 6.2 6.2 6.1 5.9 5.9 5.9 5.9 5.9 6.0 6.4 6.5 6.2 6.1 6.2 6.3 7.0 6.6 6.5 6.4 6.2
Wind_Speed
3 9 2 2 4 5 1 1 2 4 2 2 7 4 5 3 3 3 9 12 17 14 19 18 18 17 15 14 13 13 14 15 14 13 12 12 12 12 12 12 11 12 12 13 10 9 10 9 9
4 5 1 1 5 3 4 2 6 2 3 5 8 3 3 3 5 11 7 13 18 16 18 17 18 17 16 15 13 13 13 13 13 12 12 10 9 10 10 11 12 10 11 10 11 10 10 9 10
3 2 2 3 3 2 1 1 6 7 5 1 3 2 3 4 11 12 12 17 17 13 15 18 19 18 17 16 14 13 13 13 12 11 10 10 8 7 9 9 11 10 9 10 10 11 9 12 10
2 3 4 3 1 1 4 5 8 8 1 2 5 6 5 2 14 9 18 17 14 11 14 19 20 19 17 16 15 14 12 12 11 11 9 8 8 8 8 9 11 10 11 11 11 9 10 10 10
3 2 4 3 1 1 4 7 12 7 5 3 3 3 6 4 14 20 19 16 16 11 16 19 19 19 17 16 15 14 12 11 11 10 9 8 7 6 8 9 9 9 10 10 11 11 10 10 9
4 3 4 1 1 2 5 9 8 3 7 11 9 6 3 14 19 15 16 14 13 14 15 17 19 18 18 16 14 13 13 12 10 9 8 7 7 7 6 7 8 9 9 10 9 10 10 10 10
2 3 4 1 2 4 3 7 7 9 9 7 7 4 3 11 14 15 13 11 11 13 13 15 17 18 18 17 14 14 14 12 10 9 7 7 6 6 5 5 5 7 8 8 8 8 8 8 8
3 3 1 3 2 4 4 4 7 10 3 9 10 6 6 12 15 13 11 9 7 6 7 9 13 15 16 15 16 15 13 11 10 9 8 7 6 6 6 4 6 7 8 7 7 6 6 6 6
4 3 3 4 6 6 7 5 2 5 9 1 3 8 15 17 17 14 11 7 6 5 5 5 6 11 15 15 16 15 14 13 11 10 9 9 7 3 4 4 7 8 8 8 7 7 7 7 7
4 3 8 6 6 5 7 6 6 5 9 10 14 18 19 19 17 15 12 11 10 9 7 7 6 8 12 11 12 12 12 11 9 8 9 6 7 4 3 5 3 6 6 6 6 7 7 8 7
3 4 5 2 7 10 8 5 4 12 4 12 20 19 19 17 15 16 15 15 16 11 8 8 7 9 9 7 10 8 11 11 10 12 10 3 6 5 6 6 5 3 4 5 4 4 5 7 8
4 7 6 3 7 7 7 7 9 6 5 18 21 21 17 17 17 13 14 12 10 11 11 10 7 7 10 8 9 9 7 9 7 10 8 5 5 4 7 6 6 5 4 5 5 5 6 8 10
5 2 6 6 10 6 10 6 7 8 12 20 20 19 19 17 13 12 11 10 7 11 11 8 8 10 9 6 7 7 7 7 10 11 12 10 7 4 5 3 4 3 4 5 4 5 5 6 8
4 1 11 4 8 7 11 9 5 7 13 16 18 17 16 16 14 9 8 8 9 9 10 8 9 10 8 6 7 6 8 10 10 11 12 14 12 7 6 4 2 3 6 6 5 3 2 3 5
3 5 6 4 2 5 10 5 4 12 12 11 15 13 13 12 13 16 15 12 12 8 10 12 10 7 6 7 7 7 9 10 7 10 13 14 14 8 7 4 2 5 8 4 3 6 6 3 4
5 5 4 4 6 6 5 1 5 7 11 8 9 6 4 4 14 12 14 12 12 11 13 11 11 10 7 6 6 7 8 9 7 11 13 16 14 10 9 4 3 8 7 5 2 3 3 2 3
7 1 3 3 4 5 4 3 1 3 7 8 5 7 7 6 6 2 6 11 13 11 11 12 10 11 10 7 6 7 8 7 7 9 12 15 15 13 10 5 5 8 5 3 3 2 3 3 3
4 5 4 4 3 7 10 4 2 2 5 6 6 6 5 5 9 8 7 8 10 9 10 10 8 7 8 5 3 2 3 4 7 6 10 13 12 13 10 7 6 5 3 4 2 2 3 2 1
3 3 7 3 7 6 6 5 3 2 3 3 5 7 8 7 6 6 4 7 9 7 9 8 8 7 4 2 2 1 3 2 2 5 10 10 12 13 11 5 4 3 3 3 4 2 3 3 1
3 7 4 4 4 6 6 5 6 5 2 4 6 8 8 5 9 6 2 5 12 12 10 8 9 8 6 4 2 2 2 3 2 3 7 12 13 13 10 6 5 5 3 3 4 4 2 2 3
2 5 5 7 5 7 7 4 6 3 5 5 3 9 10 8 9 9 8 6 7 11 11 9 7 7 6 6 2 2 2 2 2 2 2 5 13 14 12 10 5 5 4 4 4 4 5 2 1
7 9 6 10 5 4 2 2 4 6 6 3 5 5 10 8 9 11 6 3 3 4 5 4 3 4 2 4 3 5 4 4 3 2 3 4 10 11 11 8 7 6 4 4 4 3 3 3 3
10 4 7 5 6 5 8 5 6 4 5 6 9 2 7 4 6 6 5 6 4 6 4 6 5 3 2 2 3 2 4 3 2 3 4 6 5 9 11 11 7 6 4 4 5 4 5 3 3
2 5 9 6 5 3 4 3 5 0 4 4 3 16 16 12 1 2 2 5 5 4 4 4 8 6 2 7 5 5 5 6 5 5 5 4 4 4 6 8 6 6 5 5 5 6 6 5 4
5 7 3 4 5 4 2 3 5 5 6 5 15 7 8 4 8 3 4 4 6 6 5 5 8 6 8 7 4 5 6 6 8 10 6 5 4 3 6 5 6 5 6 5 5 5 5 5 4
3 8 6 4 4 2 3 2 3 4 6 7 7 14 10 9 9 9 8 7 5 9 9 10 5 2 5 13 8 5 11 7 8 10 8 7 5 4 6 6 6 7 6 5 5 5 6 6 5
3 2 3 8 3 3 4 5 4 6 7 6 4 11 10 11 9 9 7 6 5 9 8 7 5 5 5 6 4 4 3 4 6 9 9 8 4 5 12 9 7 7 7 6 6 5 7 6 6
5 5 3 4 4 2 3 5 5 8 10 8 6 10 10 8 9 7 6 7 6 7 6 7 7 6 6 7 7 4 4 5 5 5 5 5 4 6 10 10 6 7 6 6 6 5 6 6 5
2 3 8 6 3 4 0 6 5 10 13 11 8 10 10 8 7 6 5 5 6 6 6 7 7 8 8 7 6 6 6 7 7 6 6 6 5 5 4 6 6 7 7 6 5 6 5 7 6
4 5 5 5 4 1 4 6 3 10 12 12 9 9 8 9 7 6 5 5 6 6 7 7 7 7 6 6 6 6 6 6 7 8 9 8 6 6 6 5 5 5 6 6 6 6 6 8 8
Wind_Direction
165 178 181 64 49 63 103 220 105 142 232 18 115 149 172 91 170 202 134 130 136 144 151 160 152 146 139 133 129 123 112 107 104 101 96 96 99 101 108 111 104 105 102 118 123 123 124 121 124
193 178 106 117 78 69 307 206 220 131 99 132 71 70 48 85 68 118 102 140 138 144 152 159 154 150 144 142 140 134 125 120 118 116 112 107 105 109 112 114 118 113 113 117 118 120 125 124 126
236 232 71 79 97 156 124 306 99 132 135 120 99 30 78 97 114 135 127 139 136 144 150 159 157 151 151 149 147 143 136 134 131 126 121 116 109 115 121 124 120 125 119 122 121 122 122 127 134
83 13 29 76 276 318 114 186 123 151 107 122 115 75 68 168 142 135 139 137 135 141 149 162 160 154 159 154 156 151 149 147 144 137 129 120 108 103 115 132 132 129 122 125 129 125 127 130 133
43 49 45 65 61 245 123 132 152 162 120 137 79 71 89 84 109 133 140 141 143 145 155 159 162 160 163 163 161 159 161 162 157 150 139 127 112 95 118 133 137 131 129 130 141 139 137 135 150
21 91 51 34 309 344 73 143 165 140 111 104 99 91 79 132 128 141 142 146 147 149 154 160 165 167 167 172 169 170 173 177 171 162 152 141 132 122 123 142 148 143 142 141 139 140 147 153 158
108 85 179 173 207 62 67 136 153 137 132 115 128 88 88 143 131 138 136 139 146 151 151 157 165 173 174 179 180 182 187 187 183 179 172 163 157 147 143 160 164 160 157 156 157 159 159 163 169
146 106 254 187 213 98 112 142 127 137 116 110 138 142 160 144 131 124 123 128 131 142 152 153 160 170 173 180 185 190 195 198 200 198 193 187 183 168 171 173 190 185 177 174 176 182 190 195 201
120 36 301 206 163 168 175 126 126 76 129 79 202 132 132 139 125 120 120 122 131 141 143 147 155 166 171 175 191 193 202 210 210 213 213 204 170 170 183 181 213 190 193 197 194 206 216 216 227
122 121 213 190 150 136 147 122 121 95 99 81 82 109 124 131 135 135 154 160 167 167 172 175 172 184 181 184 205 196 208 216 220 224 234 186 189 185 251 201 172 203 203 214 217 222 232 245 235
178 212 171 37 130 135 131 113 96 117 86 133 128 134 141 144 155 164 170 178 179 170 175 186 181 194 200 194 203 201 214 223 217 226 231 176 207 245 227 218 214 203 221 233 246 240 265 249 247
195 227 127 167 130 111 128 113 120 99 138 137 141 148 153 155 172 175 176 177 172 175 187 189 187 189 209 197 201 207 212 228 227 229 229 198 194 256 244 220 202 203 224 235 238 220 249 254 246
215 115 93 99 99 97 115 103 104 106 139 143 146 153 167 169 179 183 178 173 160 183 191 193 190 200 200 184 209 209 219 219 226 228 224 202 198 231 228 239 221 219 222 231 248 233 241 243 240
279 157 103 98 106 128 112 108 80 160 151 148 156 162 173 178 175 167 170 172 182 180 202 178 199 213 187 191 208 213 221 226 215 225 221 215 203 220 205 210 227 252 237 237 236 228 244 247 253
67 73 46 68 146 98 107 40 111 163 152 160 161 172 178 192 170 186 178 180 185 187 199 188 196 200 188 195 211 220 228 239 215 225 214 214 220 216 208 195 197 213 231 235 250 250 255 240 253
49 62 106 262 169 180 83 135 154 137 133 123 89 83 94 207 198 193 184 182 181 176 190 182 189 197 204 193 205 226 223 240 223 223 208 203 219 208 211 203 196 228 245 192 222 262 253 240 218
5 246 175 133 298 131 80 120 288 92 125 114 135 128 136 128 126 118 213 191 180 177 177 188 197 181 190 204 200 210 219 227 233 203 200 203 205 207 212 217 216 217 225 227 218 241 218 230 228
332 345 296 148 35 61 87 76 62 136 146 156 160 189 168 163 162 160 178 189 187 174 185 186 194 191 191 193 193 186 231 245 234 211 206 204 206 207 210 229 240 203 186 219 204 236 245 275 253
256 254 269 93 130 81 63 70 350 125 151 131 229 227 186 190 181 149 136 178 163 184 192 190 185 207 173 165 175 220 237 200 227 230 228 213 213 217 209 221 222 218 188 193 196 190 208 271 244
182 256 231 50 72 79 107 51 345 31 288 280 239 276 269 210 179 144 163 193 176 182 197 193 200 190 195 202 189 183 172 239 220 230 230 222 214 219 216 215 211 201 177 181 198 190 187 238 188
19 189 194 156 112 81 130 46 345 330 320 312 230 296 290 16 7 9 3 313 166 178 201 200 211 205 198 180 123 37 16 345 332 282 235 221 213 222 224 221 207 198 196 197 190 170 183 211 247
302 213 187 134 113 128 353 140 319 311 347 336 328 281 308 6 28 14 5 359 298 180 164 195 172 241 239 169 181 179 199 215 220 245 266 245 219 231 240 249 236 216 207 214 213 189 186 158 205
241 186 137 103 93 103 355 94 258 290 351 357 301 212 310 320 53 24 12 28 343 83 179 156 145 100 333 41 54 259 280 297 299 265 256 263 257 234 235 227 227 232 211 219 204 212 202 191 181
89 88 41 55 80 60 251 134 266 248 248 311 25 324 307 285 202 28 11 23 3 52 116 187 166 156 101 239 226 219 245 273 280 275 268 255 241 253 250 237 214 226 230 221 224 212 218 216 217
92 60 358 5 16 201 61 95 229 215 230 220 147 224 273 341 154 173 56 33 38 26 359 251 200 135 183 289 270 277 271 253 259 260 247 246 249 251 256 241 241 227 226 220 211 228 227 223 207
189 148 153 215 188 254 20 236 163 170 115 186 189 139 114 88 92 108 94 60 53 59 42 58 60 7 198 205 213 225 249 252 261 262 259 253 241 239 253 242 241 245 247 231 214 203 214 206 223
165 70 166 105 52 84 284 271 292 181 140 191 151 110 100 99 100 101 86 87 61 63 62 79 93 102 116 169 163 136 246 248 247 257 259 264 250 239 280 256 227 231 244 236 221 215 227 205 224
131 148 74 27 125 227 277 281 207 147 155 182 164 125 122 122 118 113 108 89 62 67 65 53 53 59 45 43 42 31 336 340 326 313 309 310 292 252 256 253 237 237 238 240 230 232 225 205 231
72 65 54 107 106 147 299 270 198 159 170 168 168 150 143 145 140 127 102 82 82 65 53 46 36 32 28 29 25 25 10 358 352 352 332 329 331 332 314 278 260 232 226 225 217 229 243 237 241
88 103 121 116 223 224 145 267 353 161 156 152 163 166 161 143 140 132 117 117 93 72 48 37 32 35 17 7 16 15 4 356 356 351 343 336 321 318 319 318 311 264 243 223 231 225 216 228 240